Location: Ahausen
(50.4985°N, 8.2722°E)
Time: 07:02:29
(UTC+00:00)

COSMOS 2455 - Pass Details

Date: 18 September 2020
Orbit: 898 x 911 km, 67.1° (Epoch: 20 October)

Event Time Altitude Azimuth Distance (km) Brightness Sun altitude
Exits shadow 22:35:51 27° 32° (NNE) 1,677 4.5 -37.2°
Drops below altitude 10° 22:38:28 10° 35° (NE) 2,608 5.6 -37.3°
Sets 22:40:59 0° 37° (NE) 3,554 6.4 -37.4°
